USA 164 (MILSTAR-2 3)

Last updated on Thu Nov 21 2024 00:02:40 GMT+0000 (Coordinated Universal Time)

1 27168U 02001A 24325.29914469 .00000097 00000+0 00000+0 0 9991 2 27168 10.4962 25.0782 0097314 2.1551 159.1892 1.00272204 27204
UTC large
Height (km)
Speed (km/s)
/
Latitude / Longitude
Inclination (degrees)
Orbital Period (minutes)
Azimuth
Elevation
Range (km)
Doppler Factor

Next 0 passes for location: London (51.5072 / 0.1276)

Sorry there are no passes over London.